Regional Weather Roundup
Issued by NWS Sterling, VA

Home | Current Version | Previous Version | Text Only | Print | Product List | Glossary Off
Versions: 1 2 3 4 5 6 7 8 9 10 11 12 13 14 15 16 17 18 19 20 21 22 23 24 25 26 27 28 29 30 31 32 33 34 35 36 37 38 39 40 41 42 43 44 45 46 47 48 49 50

000
ASUS41 KLWX 251210
RWRLWX

REGIONAL WEATHER ROUNDUP
NATIONAL WEATHER SERVICE BALTIMORE MD/WASHINGTON DC
800 AM EDT MON MAY 25 2015

Note: "FAIR" indicates few or no clouds below 12,000 feet
with no significant weather and/or obstructions to visibility.
 TC=TEMPERATURE CELSIUS

 * =Non NWS site. Station does not report precipitation (e.g. rain,
    snow, etc.), thunder, or fog.

DCZ001-MDZ009-015-VAZ040>042-051-053>054-251300-
WASHINGTON METRO

CITY           SKY/WX    TMP DP  RH WIND       PRES   REMARKS
WASHINGTON NAT PTSUNNY   71  58  63 SW13      30.29R
DULLES         MOSUNNY   65  57  75 S12       30.28R
ANDREWS AFB    SUNNY     69  58  68 SW13      30.28R
FT BELVOIR     SUNNY     69  58  68 VRB5      30.28R
QUANTICO       SUNNY     68  56  65 SW7       30.29R
COLLEGE PARK*  SUNNY     70  59  68 SW6       30.28R
LEESBURG*      SUNNY     66  61  82 S5        30.28S
MANASSAS*      SUNNY     66  57  72 S6        30.28R
GAITHERSBURG*  SUNNY     66  55  68 SW6       30.32R

$$

MDZ006>007-011-014-251300-
BALTIMORE METRO

CITY           SKY/WX    TMP DP  RH WIND       PRES   REMARKS
BWI AIRPORT    MOSUNNY   67  58  72 VRB6      30.28R
MD SCIENCE CTR   N/A     68  58  70 MISG      30.29R
MARTIN STATE   SUNNY     70  63  78 S5        30.29R
ANNAPOLIS      SUNNY     69  57  65 SW6       30.28R
FORT MEADE*    SUNNY     61  59  94 CALM      30.30R

$$

MDZ012-015-019>023-251300-
MARYLAND EASTERN SHORE

CITY           SKY/WX    TMP DP  RH WIND       PRES   REMARKS
OCEAN CITY     SUNNY     69  60  73 SW12      30.32S
SALISBURY      SUNNY     67  61  81 SW9       30.32R
BAY BRIDGE AP*   N/A    N/A N/A N/A S8        30.29R
CAMBRIDGE*     SUNNY     72  59  64 SW7       30.30R
EASTON*        SUNNY     72  63  73 SW10      30.33R

$$

MDZ017>025-251300-
SOUTHERN MARYLAND

CITY           SKY/WX    TMP DP  RH WIND       PRES   REMARKS
PATUXENT RIVER SUNNY     69  58  67 SW15G24   30.30R
ST INIGOES     SUNNY     69  59  70 SW9       30.31R
LEONARDTOWN*   SUNNY     68  55  64 SW12      30.32R

$$

MDZ003>005-251300-
NORTH CENTRAL MARYLAND

CITY           SKY/WX    TMP DP  RH WIND       PRES   REMARKS
FREDERICK*     SUNNY     66  61  82 MISG      30.30R
HAGERSTOWN APT SUNNY     69  54  58 S6        30.25S
WESTMINSTER*   SUNNY     68  57  68 S7        30.28R

$$

MDZ501>502-251300-
WESTERN MARYLAND

CITY           SKY/WX    TMP DP  RH WIND       PRES   REMARKS
OAKLAND*       SUNNY     61  52  72 SW10      30.30R
CUMBERLAND*    SUNNY     59  54  82 CALM      30.29S

$$

VAZ025>031-251300-
SHENANDOAH VALLEY

CITY           SKY/WX    TMP DP  RH WIND       PRES   REMARKS
WINCHESTER*    SUNNY     68  52  56 SW5       30.25S
FRONT ROYAL*   FAIR      68  55  64 S5        30.25S
LURAY*         FAIR      64  59  82 CALM      30.27S
NEW MARKET*    FAIR      63  55  76 CALM      30.27S
STAUNTON*      SUNNY     65  55  70 S5        30.31S
WAYNESBORO*    FAIR      62  55  77 CALM      30.30R

$$

WVZ021-048>050-054>055-251300-
EASTERN WEST VIRGINIA PANHANDLE

CITY           SKY/WX    TMP DP  RH WIND       PRES   REMARKS
MARTINSBURG    SUNNY     64  56  75 CALM      30.25S
PETERSBURG*    SUNNY     60  54  82 CALM      30.27S

$$

VAZ036>039-050-251300-
CENTRAL FOOTHILLS

CITY           SKY/WX    TMP DP  RH WIND       PRES   REMARKS
CHARLOTTESVILL SUNNY     65  56  72 S10       30.28R
CULPEPER*      SUNNY     65  57  73 S5        30.29R
ORANGE*        SUNNY     64  57  77 S9        30.30S
GORDONSVILLE*  FAIR      63  57  79 SW8       30.30R
WARRENTON*     FAIR      68  60  75 SW6       30.28R

$$

VAZ055>057-251300-
NORTH AND CENTRAL PIEDMONT

CITY           SKY/WX    TMP DP  RH WIND       PRES   REMARKS
FREDERICKSBRG* SUNNY     69  59  70 SW9       30.29R
STAFFORD*      SUNNY     67  56  68 S8        30.33R

$$

NCZ024-NYZ072-PAZ021-071-VAZ022-071-251300-
OTHER REGIONAL OBSERVATIONS

CITY           SKY/WX    TMP DP  RH WIND       PRES   REMARKS
NEW YORK CITY  CLOUDY    67  54  63 CALM      30.30R
PHILADELPHIA   MOSUNNY   69  59  70 S8        30.28R
PITTSBURGH     PTSUNNY   68  51  54 S7        30.19R
ROANOKE        MOSUNNY   64  56  75 CALM      30.34R
RICHMOND       MOSUNNY   68  58  70 SW8       30.33R
RALEIGH        PTSUNNY   66  59  78 SW6       30.34F

$$

ANZ530>537-251300-
MARINE OBSERVATIONS

STATION/POSITION TIME  TEMP    WIND        PRES
                       AIR SEA DIR/SP/G
                 (UTC) (F)     (DEG/KT/KT) (MB)
THOMAS PT LIGHT  1200   68 66  220/ 13/ 14 1026.2R
BALT KEY BRIDGE  1100   66     190/  6/  7 1024.4R
LEWISETTA        1100   67 69              1025.9R
SOLOMONS ISLAND  1100      69                N/A
PINEY POINT      1100          230/ 13/ 15   N/A

$$




USA.gov is the U.S. government's official web portal to all federal, state and local government web resources and services.